| time (UTC) | temp F | wind direction | speed knots | gust knots | rain 1hr in | rain 24hr in | rain mn in | humidity % | barometer mb |
| 20260504034505 | 47 | 354 | 12.2 | 19.1 | 0.00 | 0.00 | 0.00 | 55 | 1011.5 |
| 20260504033505 | 47 | 1 | 13.9 | 20.0 | 0.00 | 0.00 | 0.00 | 53 | 1011.2 |
| 20260504033006 | 48 | 4 | 12.2 | 19.1 | 0.00 | 0.00 | 0.00 | 53 | 1011.2 |
| 20260504032505 | 48 | 2 | 12.2 | 22.6 | 0.00 | 0.00 | 0.00 | 53 | 1011.1 |
| 20260504032005 | 48 | 23 | 13.9 | 25.2 | 0.00 | 0.00 | 0.00 | 52 | 1011.1 |
| 20260504031505 | 49 | 3 | 15.6 | 25.2 | 0.00 | 0.00 | 0.00 | 51 | 1011.2 |
| 20260504031005 | 49 | 359 | 14.8 | 27.8 | 0.00 | 0.00 | 0.00 | 50 | 1011.1 |
| 20260504030505 | 50 | 1 | 14.8 | 30.4 | 0.00 | 0.00 | 0.00 | 49 | 1011.1 |
| 20260504030005 | 51 | 16 | 14.8 | 33.0 | 0.00 | 0.00 | 0.00 | 50 | 1010.9 |
| 20260504025505 | 51 | 1 | 20.9 | 33.0 | 0.00 | 0.00 | 0.00 | 49 | 1010.8 |
| 20260504025005 | 52 | 5 | 19.1 | 33.0 | 0.00 | 0.00 | 0.00 | 48 | 1010.7 |
| 20260504024505 | 52 | 7 | 20.9 | 30.4 | 0.00 | 0.00 | 0.00 | 48 | 1010.4 |
| 20260504024005 | 53 | 28 | 13.9 | 30.4 | 0.00 | 0.00 | 0.00 | 47 | 1010.2 |
| 20260504023505 | 53 | 23 | 17.4 | 30.4 | 0.00 | 0.00 | 0.00 | 45 | 1010.0 |
| 20260504023005 | 54 | 13 | 15.6 | 30.4 | 0.00 | 0.00 | 0.00 | 43 | 1010.0 |
| 20260504022505 | 55 | 3 | 19.1 | 30.4 | 0.00 | 0.00 | 0.00 | 39 | 1010.0 |
| 20260504021505 | 56 | 337 | 16.5 | 31.3 | 0.00 | 0.00 | 0.00 | 37 | 1009.3 |
| 20260504021005 | 56 | 343 | 18.2 | 30.4 | 0.00 | 0.00 | 0.00 | 37 | 1009.3 |
| 20260504020504 | 56 | 357 | 17.4 | 27.8 | 0.00 | 0.00 | 0.00 | 38 | 1009.1 |
| 20260504015505 | 56 | 348 | 16.5 | 26.1 | 0.00 | 0.00 | 0.00 | 39 | 1009.0 |
| 20260504015005 | 56 | 349 | 14.8 | 26.9 | 0.00 | 0.00 | 0.00 | 40 | 1008.9 |
| 20260504014505 | 56 | 339 | 15.6 | 26.9 | 0.00 | 0.00 | 0.00 | 39 | 1008.8 |
| 20260504014005 | 57 | 348 | 14.8 | 22.6 | 0.00 | 0.00 | 0.00 | 39 | 1008.7 |
| 20260504013005 | 57 | 2 | 13.9 | 21.7 | 0.00 | 0.00 | 0.00 | 39 | 1008.6 |
| 20260504012505 | 57 | 353 | 13.9 | 26.9 | 0.00 | 0.00 | 0.00 | 38 | 1008.5 |
| 20260504011505 | 58 | 359 | 15.6 | 26.9 | 0.00 | 0.00 | 0.00 | 38 | 1008.3 |
| 20260504010505 | 58 | 355 | 18.2 | 28.7 | 0.00 | 0.00 | 0.00 | 38 | 1008.2 |
| 20260504010005 | 58 | 353 | 19.1 | 28.7 | 0.00 | 0.00 | 0.00 | 37 | 1008.2 |
| 20260504005505 | 58 | 355 | 13.9 | 30.4 | 0.00 | 0.00 | 0.00 | 37 | 1008.1 |
| 20260504005005 | 58 | 355 | 15.6 | 30.4 | 0.00 | 0.00 | 0.00 | 38 | 1008.1 |
| 20260504004505 | 59 | 348 | 16.5 | 27.8 | 0.00 | 0.00 | 0.00 | 38 | 1008.1 |
| 20260504004005 | 59 | 3 | 16.5 | 26.1 | 0.00 | 0.00 | 0.00 | 38 | 1008.0 |
| 20260504003505 | 59 | 358 | 14.8 | 26.1 | 0.00 | 0.00 | 0.00 | 39 | 1008.1 |
| 20260504003005 | 59 | 8 | 14.8 | 27.8 | 0.00 | 0.00 | 0.00 | 38 | 1008.1 |
| 20260504002505 | 59 | 358 | 15.6 | 27.8 | 0.00 | 0.00 | 0.00 | 37 | 1008.0 |
| 20260504002004 | 59 | 5 | 16.5 | 27.8 | 0.00 | 0.00 | 0.00 | 37 | 1007.8 |
| 20260504001504 | 59 | 13 | 19.1 | 27.8 | 0.00 | 0.00 | 0.00 | 36 | 1007.7 |
| 20260504001005 | 60 | 0 | 13.9 | 31.3 | 0.00 | 0.00 | 0.00 | 35 | 1007.7 |
| 20260504000505 | 60 | 351 | 15.6 | 35.6 | 0.00 | 0.00 | 0.00 | 34 | 1007.8 |
| 20260504000006 | 60 | 18 | 18.2 | 35.6 | 0.00 | 0.00 | 0.00 | 34 | 1007.7 |
| 20260503235505 | 61 | 5 | 17.4 | 25.2 | 0.00 | 0.00 | 0.00 | 38 | 1007.5 |
| 20260503235006 | 61 | 358 | 16.5 | 26.1 | 0.00 | 0.00 | 0.00 | 39 | 1007.5 |
| 20260503234505 | 61 | 344 | 18.2 | 26.1 | 0.00 | 0.00 | 0.00 | 39 | 1007.4 |
| 20260503234005 | 61 | 358 | 16.5 | 22.6 | 0.00 | 0.00 | 0.00 | 39 | 1007.4 |
| 20260503233005 | 62 | 11 | 13.9 | 27.8 | 0.00 | 0.00 | 0.00 | 38 | 1007.4 |
| 20260503232505 | 63 | 24 | 15.6 | 33.9 | 0.00 | 0.00 | 0.00 | 37 | 1007.5 |
| 20260503232005 | 63 | 0 | 14.8 | 33.9 | 0.00 | 0.00 | 0.00 | 35 | 1007.3 |
| 20260503231005 | 64 | 350 | 20.0 | 34.8 | 0.00 | 0.00 | 0.00 | 33 | 1007.2 |
| 20260503230505 | 64 | 354 | 22.6 | 34.8 | 0.00 | 0.00 | 0.00 | 33 | 1007.0 |
| 20260503230006 | 64 | 357 | 18.2 | 33.0 | 0.00 | 0.00 | 0.00 | 33 | 1007.0 |
| 20260503224504 | 63 | 350 | 16.5 | 30.4 | 0.00 | 0.00 | 0.00 | 37 | 1007.1 |
| 20260503224005 | 64 | 0 | 20.9 | 31.3 | 0.00 | 0.00 | 0.00 | 37 | 1006.9 |
| 20260503223505 | 65 | 8 | 17.4 | 31.3 | 0.00 | 0.00 | 0.00 | 35 | 1006.7 |
| 20260503223005 | 69 | 353 | 19.1 | 28.7 | 0.00 | 0.00 | 0.00 | 30 | 1006.7 |
| 20260503222505 | 70 | 306 | 11.3 | 26.1 | 0.00 | 0.00 | 0.00 | 29 | 1006.1 |
| 20260503222005 | 70 | 310 | 12.2 | 26.1 | 0.00 | 0.00 | 0.00 | 29 | 1006.0 |
| 20260503221005 | 71 | 308 | 13.0 | 26.1 | 0.00 | 0.00 | 0.00 | 28 | 1006.1 |
| 20260503220505 | 71 | 316 | 13.9 | 26.1 | 0.00 | 0.00 | 0.00 | 28 | 1006.1 |
| 20260503215505 | 70 | 311 | 8.7 | 24.3 | 0.00 | 0.00 | 0.00 | 29 | 1006.2 |
| 20260503214505 | 70 | 321 | 12.2 | 20.9 | 0.00 | 0.00 | 0.00 | 27 | 1006.3 |
| 20260503214006 | 71 | 326 | 11.3 | 20.9 | 0.00 | 0.00 | 0.00 | 28 | 1006.4 |
| 20260503212005 | 71 | 304 | 13.9 | 24.3 | 0.00 | 0.00 | 0.00 | 26 | 1006.7 |
| 20260503211505 | 71 | 323 | 8.7 | 20.0 | 0.00 | 0.00 | 0.00 | 28 | 1006.8 |
| 20260503211005 | 71 | 293 | 9.6 | 22.6 | 0.00 | 0.00 | 0.00 | 29 | 1006.9 |
| 20260503210505 | 70 | 322 | 12.2 | 22.6 | 0.00 | 0.00 | 0.00 | 29 | 1007.0 |
| 20260503210006 | 70 | 309 | 11.3 | 22.6 | 0.00 | 0.00 | 0.00 | 29 | 1007.1 |
| 20260503205505 | 70 | 309 | 12.2 | 19.1 | 0.00 | 0.00 | 0.00 | 30 | 1007.1 |
| 20260503205005 | 69 | 293 | 7.8 | 20.0 | 0.00 | 0.00 | 0.00 | 30 | 1007.2 |
| 20260503204506 | 70 | 298 | 12.2 | 20.0 | 0.00 | 0.00 | 0.00 | 30 | 1007.3 |
| 20260503204006 | 70 | 317 | 7.8 | 17.4 | 0.00 | 0.00 | 0.00 | 31 | 1007.4 |
| 20260503203506 | 70 | 336 | 7.8 | 17.4 | 0.00 | 0.00 | 0.00 | 31 | 1007.4 |
| 20260503202505 | 70 | 351 | 7.8 | 18.2 | 0.00 | 0.00 | 0.00 | 31 | 1007.5 |
| 20260503202005 | 70 | 343 | 11.3 | 20.9 | 0.00 | 0.00 | 0.00 | 31 | 1007.5 |
| 20260503201506 | 69 | 352 | 10.4 | 20.9 | 0.00 | 0.00 | 0.00 | 32 | 1007.6 |
| 20260503201005 | 69 | 345 | 11.3 | 20.9 | 0.00 | 0.00 | 0.00 | 31 | 1007.7 |
| 20260503200506 | 70 | 347 | 7.8 | 22.6 | 0.00 | 0.00 | 0.00 | 32 | 1007.7 |
| 20260503200006 | 70 | 321 | 9.6 | 22.6 | 0.00 | 0.00 | 0.00 | 30 | 1007.8 |
| 20260503195006 | 70 | 326 | 12.2 | 20.0 | 0.00 | 0.00 | 0.00 | 30 | 1008.0 |
| 20260503194505 | 70 | 342 | 8.7 | 20.0 | 0.00 | 0.00 | 0.00 | 30 | 1008.1 |
| 20260503194005 | 70 | 314 | 11.3 | 22.6 | 0.00 | 0.00 | 0.00 | 31 | 1008.2 |
| 20260503193005 | 71 | 329 | 15.6 | 25.2 | 0.00 | 0.00 | 0.00 | 30 | 1008.2 |
| 20260503192005 | 71 | 311 | 7.8 | 17.4 | 0.00 | 0.00 | 0.00 | 31 | 1008.4 |
| 20260503191505 | 71 | 322 | 11.3 | 19.1 | 0.00 | 0.00 | 0.00 | 29 | 1008.5 |
| 20260503191006 | 71 | 334 | 8.7 | 20.0 | 0.00 | 0.00 | 0.00 | 30 | 1008.6 |
| 20260503190505 | 71 | 335 | 9.6 | 20.0 | 0.00 | 0.00 | 0.00 | 30 | 1008.8 |
| 20260503190005 | 71 | 343 | 7.8 | 17.4 | 0.00 | 0.00 | 0.00 | 30 | 1009.0 |
| 20260503185505 | 71 | 296 | 10.4 | 19.1 | 0.00 | 0.00 | 0.00 | 30 | 1009.0 |
| 20260503185006 | 71 | 306 | 9.6 | 19.1 | 0.00 | 0.00 | 0.00 | 31 | 1009.1 |
| 20260503184505 | 70 | 292 | 8.7 | 19.1 | 0.00 | 0.00 | 0.00 | 30 | 1009.2 |
| 20260503184005 | 70 | 281 | 10.4 | 19.1 | 0.00 | 0.00 | 0.00 | 29 | 1009.1 |
| 20260503183505 | 70 | 276 | 8.7 | 19.1 | 0.00 | 0.00 | 0.00 | 30 | 1009.2 |
| 20260503183005 | 71 | 282 | 11.3 | 20.9 | 0.00 | 0.00 | 0.00 | 30 | 1009.4 |
| 20260503182505 | 70 | 282 | 9.6 | 22.6 | 0.00 | 0.00 | 0.00 | 33 | 1009.5 |
| 20260503182006 | 70 | 297 | 11.3 | 22.6 | 0.00 | 0.00 | 0.00 | 32 | 1009.6 |
| 20260503181506 | 70 | 315 | 13.9 | 22.6 | 0.00 | 0.00 | 0.00 | 32 | 1009.7 |
| 20260503181005 | 71 | 309 | 12.2 | 22.6 | 0.00 | 0.00 | 0.00 | 34 | 1009.6 |
| 20260503180505 | 70 | 290 | 14.8 | 31.3 | 0.00 | 0.00 | 0.00 | 35 | 1009.7 |
| 20260503180006 | 70 | 275 | 12.2 | 31.3 | 0.00 | 0.00 | 0.00 | 35 | 1009.8 |
| 20260503175505 | 71 | 294 | 13.9 | 31.3 | 0.00 | 0.00 | 0.00 | 36 | 1009.9 |
| 20260503174505 | 71 | 286 | 13.9 | 28.7 | 0.00 | 0.00 | 0.00 | 37 | 1010.0 |
| 20260503174006 | 71 | 301 | 14.8 | 28.7 | 0.00 | 0.00 | 0.00 | 36 | 1010.1 |
| 20260503173004 | 71 | 274 | 10.4 | 26.1 | 0.00 | 0.00 | 0.00 | 38 | 1010.3 |
| 20260503172505 | 71 | 273 | 13.9 | 26.1 | 0.00 | 0.00 | 0.00 | 36 | 1010.4 |
| 20260503172006 | 71 | 286 | 11.3 | 22.6 | 0.00 | 0.00 | 0.00 | 36 | 1010.4 |
| 20260503171505 | 70 | 272 | 11.3 | 22.6 | 0.00 | 0.00 | 0.00 | 37 | 1010.5 |
| 20260503171006 | 71 | 275 | 13.9 | 22.6 | 0.00 | 0.00 | 0.00 | 36 | 1010.5 |
| 20260503170505 | 71 | 263 | 14.8 | 22.6 | 0.00 | 0.00 | 0.00 | 35 | 1010.5 |
| 20260503151006 | 63 | 249 | 13.9 | 26.1 | 0.00 | 0.00 | 0.00 | 39 | 1012.9 |
| 20260503150505 | 63 | 261 | 12.2 | 20.9 | 0.00 | 0.00 | 0.00 | 39 | 1013.0 |
| 20260503131005 | 45 | 245 | 4.3 | 8.7 | 0.00 | 0.00 | 0.00 | 67 | 1015.3 |
| 20260503130505 | 44 | 238 | 5.2 | 8.7 | 0.00 | 0.00 | 0.00 | 68 | 1015.4 |
| 20260503110505 | 41 | 246 | 5.2 | 10.4 | 0.00 | 0.00 | 0.00 | 71 | 1016.2 |
| 20260503090505 | 41 | 245 | 2.6 | 7.8 | 0.00 | 0.00 | 0.00 | 68 | 1017.7 |
| 20260503081004 | 44 | 244 | 4.3 | 7.0 | 0.00 | 0.00 | 0.00 | 65 | 1018.2 |
| 20260503071505 | 44 | 247 | 3.5 | 6.1 | 0.00 | 0.00 | 0.00 | 63 | 1018.7 |
| 20260503070504 | 44 | 247 | 2.6 | 6.1 | 0.00 | 0.00 | 0.00 | 62 | 1018.7 |
| 20260503055004 | 46 | 231 | 2.6 | 4.3 | 0.00 | 0.00 | 0.00 | 55 | 1019.2 |
| 20260503054504 | 46 | 228 | 1.7 | 5.2 | 0.00 | 0.00 | 0.00 | 56 | 1019.1 |
| 20260503054004 | 46 | 217 | 2.6 | 5.2 | 0.00 | 0.00 | 0.00 | 56 | 1019.1 |
| 20260503053504 | 46 | 218 | 2.6 | 5.2 | 0.00 | 0.00 | 0.00 | 56 | 1019.1 |
| 20260503053004 | 47 | 216 | 2.6 | 5.2 | 0.00 | 0.00 | 0.00 | 55 | 1019.1 |
| 20260503052005 | 47 | 216 | 2.6 | 6.1 | 0.00 | 0.00 | 0.00 | 55 | 1019.2 |
| 20260503050504 | 48 | 225 | 2.6 | 4.3 | 0.00 | 0.00 | 0.00 | 55 | 1019.3 |
| 20260503050005 | 48 | 232 | 2.6 | 4.3 | 0.00 | 0.00 | 0.00 | 55 | 1019.2 |
| 20260503045004 | 48 | 229 | 1.7 | 4.3 | 0.00 | 0.00 | 0.00 | 55 | 1019.2 |
| 20260503044504 | 49 | 213 | 2.6 | 5.2 | 0.00 | 0.00 | 0.00 | 55 | 1019.3 |
| 20260503044005 | 49 | 224 | 2.6 | 6.1 | 0.00 | 0.00 | 0.00 | 54 | 1019.3 |
| 20260503043504 | 49 | 229 | 4.3 | 6.1 | 0.00 | 0.00 | 0.00 | 55 | 1019.3 |
| 20260503042504 | 50 | 223 | 1.7 | 4.3 | 0.00 | 0.00 | 0.00 | 54 | 1019.3 |
| 20260503042005 | 50 | 216 | 1.7 | 4.3 | 0.00 | 0.00 | 0.00 | 53 | 1019.3 |
| 20260503041505 | 50 | 219 | 2.6 | 4.3 | 0.00 | 0.00 | 0.00 | 53 | 1019.4 |
| 20260503041008 | 50 | 212 | 1.7 | 2.6 | 0.00 | 0.00 | 0.00 | 54 | 1019.4 |
| 20260503040507 | 50 | 220 | 1.7 | 2.6 | 0.00 | 0.00 | 0.00 | 53 | 1019.4 |
| 20260503040008 | 50 | 221 | 1.7 | 2.6 | 0.00 | 0.00 | 0.00 | 53 | 1019.5 |
| 20260503035508 | 50 | 221 | 1.7 | 2.6 | 0.00 | 0.00 | 0.00 | 53 | 1019.5 |
| 20260503035009 | 50 | 218 | 1.7 | 2.6 | 0.00 | 0.00 | 0.00 | 53 | 1019.6 |